Location: Bothwell
(41.7170°N, 112.2589°W)
Time: 01:55:56
(UTC+00:00)

STARLINK-37264 - Pass Details

Date: 19 April 2026
Orbit: 265 x 267 km, 97.3° (Epoch: 18 April)

Event Time Altitude Azimuth Distance (km) Brightness Sun altitude
Rises 04:07:58 0° 11° (N) 1,912 5.8 -19.9°
Reaches altitude 10° 04:09:48 10° 10° (N) 1,095 4.5 -20.2°
Enters shadow 04:10:01 12° 10° (N) 995 4.3 -20.3°
